Elbow Lake, MN

9:25 PM CDT on July 22, 2017 (GMT -0500)
Elbow Lake

Weather History for KY63 - November, 2013

Change the Weather History Date:

Sunday, November 10, 2013

  Actual Average (KFFM) Record (KFFM)
Temperature  
Mean Temperature 29 °F -  
Max Temperature 36 °F 37 °F 68 °F (1954)
Min Temperature 22 °F 22 °F -1 °F (1979)
Degree Days  
Heating Degree Days 36    
Moisture  
Dew Point 25 °F    
Average Humidity 84    
Maximum Humidity 97    
Minimum Humidity 69    
Precipitation  
Precipitation 0.00 in - - ()
Sea Level Pressure  
Sea Level Pressure 30.21 in    
Wind  
Wind Speed 8 mph (WSW)    
Max Wind Speed 21 mph    
Max Gust Speed 28 mph    
Visibility 10 miles    
Events      
Averages and records for this station are not official NWS values.
T = Trace of Precipitation, MM = Missing Value Source: NWS Daily Summary

Daily Weather History Graph

Daily Weather History Graph

Search for Another Location

Airport or City:

Trip Planner

Search our weather history database for the weather conditions in past years. The results will help you decide how hot, cold, wet, or windy it might be!

Date:

Astronomy

Nov. 10, 2013 Rise Set
Actual Time 7:17 AM CST 4:57 PM CST
Civil Twilight 6:45 AM CST 5:29 PM CST
Nautical Twilight 6:09 AM CST 6:05 PM CST
Astronomical Twilight 5:34 AM CST 6:40 PM CST
Moon 1:24 PM CST (11/10) No Moon Set
Length of Visible Light 10h 43m
Length of Day
9h 39m
First Quarter, 56% of the Moon is Illuminated
Nov 10
First Quarter
Nov 17
Full
Nov 25
Last Quarter
Dec 2
New
Dec 9
First Quarter

Hourly Weather History & Observations

Time (CST) Temp. Windchill Dew Point Humidity Pressure Visibility Wind Dir Wind Speed Gust Speed Precip Events Conditions
12:12 AM 31.1 °F 21.9 °F 26.4 °F 83% 30.27 in 10.0 mi NW 11.5 mph - N/A   Scattered Clouds
12:32 AM 30.7 °F 22.6 °F 26.1 °F 83% 30.27 in 10.0 mi NW 9.2 mph - N/A   Clear
12:52 AM 29.3 °F 20.8 °F 26.1 °F 88% 30.26 in 10.0 mi NW 9.2 mph - N/A   Clear
1:12 AM 29.3 °F 20.8 °F 26.1 °F 88% 30.27 in 10.0 mi NW 9.2 mph - N/A   Clear
1:32 AM 28.9 °F 21.1 °F 25.7 °F 88% 30.28 in 10.0 mi NW 8.1 mph - N/A   Clear
1:52 AM 28.4 °F 22.2 °F 26.1 °F 91% 30.27 in 10.0 mi NNW 5.8 mph - N/A   Clear
2:12 AM 26.2 °F 19.6 °F 24.1 °F 92% 30.28 in 10.0 mi West 5.8 mph - N/A   Clear
2:32 AM 25.0 °F 18.1 °F 23.2 °F 93% 30.28 in 10.0 mi West 5.8 mph - N/A   Clear
2:52 AM 24.8 °F 20.5 °F 23.5 °F 95% 30.28 in 10.0 mi WSW 3.5 mph - N/A   Clear
3:12 AM 24.3 °F 18.4 °F 23.5 °F 97% 30.28 in 10.0 mi West 4.6 mph - N/A   Clear
3:32 AM 23.9 °F 15.8 °F 22.8 °F 96% 30.29 in 10.0 mi West 6.9 mph - N/A   Clear
3:52 AM 23.0 °F 17.0 °F 21.7 °F 95% 30.30 in 10.0 mi West 4.6 mph - N/A   Clear
4:12 AM 23.0 °F 17.0 °F 21.9 °F 96% 30.30 in 10.0 mi West 4.6 mph - N/A   Clear
4:32 AM 23.5 °F 17.6 °F 22.5 °F 96% 30.29 in 10.0 mi West 4.6 mph - N/A   Clear
4:52 AM 23.5 °F 17.6 °F 22.6 °F 96% 30.29 in 10.0 mi West 4.6 mph - N/A   Clear
5:12 AM 22.1 °F 15.9 °F 21.0 °F 96% 30.30 in 10.0 mi WSW 4.6 mph - N/A   Clear
5:32 AM 23.7 °F - 22.8 °F 96% 30.28 in 10.0 mi Calm Calm - N/A   Clear
5:52 AM 23.4 °F - 22.1 °F 95% 30.29 in 10.0 mi Calm Calm - N/A   Clear
6:12 AM 22.6 °F 16.5 °F 21.6 °F 96% 30.28 in 10.0 mi South 4.6 mph - N/A   Clear
6:32 AM 23.9 °F 19.5 °F 22.8 °F 96% 30.29 in 10.0 mi SW 3.5 mph - N/A   Clear
6:52 AM 24.3 °F 19.9 °F 23.0 °F 95% 30.29 in 10.0 mi SSW 3.5 mph - N/A   Clear
7:12 AM 24.4 °F 18.6 °F 23.0 °F 94% 30.30 in 10.0 mi SSW 4.6 mph - N/A   Clear
7:32 AM 24.6 °F 18.8 °F 23.2 °F 94% 30.28 in 10.0 mi South 4.6 mph - N/A   Clear
7:52 AM 25.3 °F 21.1 °F 23.9 °F 94% 30.28 in 10.0 mi South 3.5 mph - N/A   Clear
8:12 AM 26.1 °F 21.9 °F 24.6 °F 94% 30.28 in 10.0 mi South 3.5 mph - N/A   Clear
8:32 AM 26.8 °F 21.4 °F 25.0 °F 93% 30.28 in 10.0 mi South 4.6 mph - N/A   Clear
8:52 AM 27.3 °F 20.9 °F 25.3 °F 92% 30.28 in 10.0 mi SSW 5.8 mph - N/A   Clear
9:12 AM 28.2 °F 22.0 °F 26.1 °F 92% 30.28 in 10.0 mi SSW 5.8 mph - N/A   Clear
9:32 AM 28.8 °F 23.7 °F 26.1 °F 90% 30.28 in 10.0 mi SW 4.6 mph - N/A   Clear
9:52 AM 29.7 °F 23.7 °F 26.4 °F 88% 30.27 in 10.0 mi SSW 5.8 mph - N/A   Clear
10:12 AM 30.7 °F 24.1 °F 27.5 °F 88% 30.27 in 10.0 mi SSW 6.9 mph - N/A   Clear
10:32 AM 32.0 °F 24.8 °F 27.3 °F 83% 30.27 in 10.0 mi SW 8.1 mph - N/A   Clear
10:52 AM 32.7 °F 24.5 °F 27.3 °F 81% 30.27 in 10.0 mi SW 10.4 mph - N/A   Clear
11:12 AM 34.2 °F 26.2 °F 27.3 °F 76% 30.26 in 10.0 mi SSW 10.4 mph - N/A   Clear
11:32 AM 34.9 °F 27.1 °F 27.0 °F 73% 30.25 in 10.0 mi SW 10.4 mph - N/A   Clear
11:52 AM 35.8 °F 27.8 °F 27.1 °F 71% 30.23 in 10.0 mi SSW 11.5 mph - N/A   Mostly Cloudy
12:12 PM 36.1 °F 27.7 °F 27.0 °F 69% 30.21 in 10.0 mi SSW 12.7 mph - N/A   Overcast
12:32 PM 35.8 °F 28.3 °F 27.1 °F 71% 30.20 in 10.0 mi SSW 10.4 mph - N/A   Overcast
12:52 PM 35.8 °F 27.8 °F 26.6 °F 69% 30.19 in 10.0 mi SSW 11.5 mph - N/A   Overcast
1:12 PM 35.6 °F 27.5 °F 27.0 °F 71% 30.17 in 10.0 mi SSW 11.5 mph - N/A   Overcast
1:32 PM 34.9 °F 27.1 °F 26.6 °F 72% 30.17 in 10.0 mi South 10.4 mph - N/A   Overcast
1:52 PM 34.2 °F 26.2 °F 27.1 °F 75% 30.16 in 10.0 mi South 10.4 mph - N/A   Overcast
2:12 PM 34.2 °F 28.2 °F 27.3 °F 76% 30.15 in 10.0 mi South 6.9 mph - N/A   Overcast
2:32 PM 34.2 °F 26.8 °F 27.3 °F 76% 30.14 in 10.0 mi South 9.2 mph - N/A   Overcast
2:52 PM 34.2 °F 26.2 °F 27.7 °F 77% 30.13 in 10.0 mi South 10.4 mph - N/A   Overcast
3:12 PM 34.2 °F 26.2 °F 27.9 °F 78% 30.12 in 10.0 mi SSE 10.4 mph - N/A   Overcast
3:32 PM 34.2 °F 26.8 °F 27.5 °F 77% 30.11 in 10.0 mi South 9.2 mph - N/A   Overcast
3:52 PM 34.0 °F 26.6 °F 27.7 °F 78% 30.11 in 10.0 mi SSE 9.2 mph - N/A   Overcast
4:12 PM 33.8 °F 26.4 °F 27.5 °F 78% 30.09 in 10.0 mi SSE 9.2 mph - N/A   Overcast
4:32 PM 33.8 °F 26.4 °F 28.0 °F 79% 30.11 in 10.0 mi South 9.2 mph - N/A   Overcast
4:52 PM 33.8 °F 25.3 °F 27.5 °F 78% 30.11 in 10.0 mi South 11.5 mph - N/A   Overcast
5:12 PM 33.8 °F 27.7 °F 27.5 °F 78% 30.11 in 10.0 mi South 6.9 mph - N/A   Overcast
5:33 PM 33.4 °F 27.3 °F 27.5 °F 79% 30.11 in 10.0 mi South 6.9 mph - N/A   Overcast
5:52 PM 33.3 °F 27.9 °F 28.0 °F 81% 30.11 in 10.0 mi SSW 5.8 mph - N/A   Overcast
6:12 PM 33.1 °F 30.0 °F 28.2 °F 82% 30.12 in 10.0 mi North 3.5 mph - N/A   Overcast
6:32 PM 33.3 °F - 27.9 °F 81% 30.12 in 10.0 mi Calm Calm - N/A   Overcast
6:52 PM 33.3 °F - 27.7 °F 80% 30.12 in 10.0 mi Calm Calm - N/A   Mostly Cloudy
7:12 PM 32.4 °F 26.9 °F 28.4 °F 85% 30.13 in 10.0 mi North 5.8 mph - N/A   Mostly Cloudy
7:33 PM 32.5 °F - 28.4 °F 85% 30.13 in 10.0 mi Calm Calm - N/A   Overcast
7:52 PM 32.9 °F 28.5 °F 28.6 °F 84% 30.14 in 10.0 mi NNW 4.6 mph - N/A   Overcast
8:12 PM 33.4 °F 29.1 °F 28.8 °F 83% 30.12 in 10.0 mi NNW 4.6 mph - N/A   Overcast
8:33 PM 33.6 °F 25.0 °F 28.4 °F 81% 30.13 in 10.0 mi NW 11.5 mph - N/A   Overcast
8:52 PM 32.0 °F 23.0 °F 29.3 °F 90% 30.14 in 10.0 mi NNW 11.5 mph - N/A   Overcast
9:12 PM 31.1 °F 19.7 °F 28.2 °F 89% 30.16 in 10.0 mi NNW 17.3 mph 25.3 mph N/A   Overcast
9:33 PM 29.1 °F 16.7 °F 25.7 °F 87% 30.16 in 10.0 mi North 18.4 mph 23.0 mph N/A   Overcast
9:52 PM 28.0 °F 16.1 °F 23.5 °F 83% 30.17 in 10.0 mi North 16.1 mph 21.9 mph N/A   Overcast
10:13 PM 26.6 °F 13.8 °F 21.6 °F 81% 30.19 in 10.0 mi North 17.3 mph 26.5 mph N/A   Overcast
10:32 PM 25.2 °F 10.8 °F 18.7 °F 76% 30.21 in 10.0 mi North 20.7 mph 27.6 mph N/A   Overcast
10:52 PM 24.1 °F 9.4 °F 15.1 °F 69% 30.20 in 10.0 mi North 20.7 mph 27.6 mph N/A   Overcast
11:12 PM 23.0 °F 8.3 °F 15.3 °F 72% 30.22 in 10.0 mi North 19.6 mph 27.6 mph N/A   Overcast
11:32 PM 22.8 °F 9.4 °F 16.2 °F 76% 30.23 in 10.0 mi NNW 16.1 mph 24.2 mph N/A   Mostly Cloudy
11:52 PM 22.1 °F 8.9 °F 13.8 °F 70% 30.25 in 10.0 mi North 15.0 mph 26.5 mph N/A   Mostly Cloudy